Location: Unspecified
(33.2407°S, 0.0000°E)
Time: 21:37:02
(UTC+00:00)

Hubble Space Telescope - Pass Details

Date: 24 May 2019
Orbit: 536 x 540 km, 28.5° (Epoch: 18 June)

Event Time Altitude Azimuth Distance (km) Brightness Sun altitude
Exits shadow 06:18:45 - 285° (WNW) 2,350 3.5 -6.8°
Reaches altitude 10° 06:20:46 10° 302° (WNW) 1,795 3.1 -6.5°
Maximum altitude 06:23:10 15° 338° (NNW) 1,500 3.0 -6.0°
Drops below altitude 10° 06:25:34 10° 13° (NNE) 1,791 4.0 -5.5°
Sets 06:28:37 0° 37° (NE) 2,678 5.5 -4.9°
